Tracking 35274 objects as of 10-Sep-2026
HD Live streaming from Space Station
objects crossing your sky now

COSMOS 1408 DEB


COSMOS 1408 DEB is no longer on orbit


NORAD ID: 52519
Int'l Code: 1982-092BYE
Launch date: September 16, 1982
Source: Commonwealth of Independent States (former USSR) (CIS)
Launch site: PLESETSK MISSILE AND SPACE COMPLEX (PKMTR)
Decay date: 2022-08-04

Note: This is SATELLITE DEBRIS
Your satellite tracking list
Your tracking list is empty




NASA's NSSDC Master Catalog

Two Line Element Set (TLE):
1 52519U 82092BYE 22150.12415666  .00128409  00000-0  37459-2 0  9998
2 52519  82.5164 290.7674 0075008  79.9804 280.9890 15.32052677  6293
Source of the keplerian elements: AFSPC